Location: Austin, TX
(30.3000°N, 97.7500°W)
Time: 21:20:04
(UTC-05:00)

Cosmos 1666 - Visible Passes

Search period start: 29 March 2015 00:00
Search period end: 08 April 2015 00:00
Orbit: 510 x 536 km, 82.5° (Epoch: 29 March)

Date Brightness Start Highest point End Pass type
(mag) Time Alt. Az. Time Alt. Az. Time Alt. Az.
29 Mar 2.6 05:56:27 10° N 06:00:23 88° W 06:04:19 10° S visible
30 Mar 2.8 05:43:47 10° N 05:47:42 79° E 05:51:38 10° S visible
31 Mar 3.0 05:31:07 10° N 05:35:01 66° E 05:37:20 23° SSE visible
01 Apr 3.3 05:18:26 10° N 05:22:12 56° ENE 05:22:12 56° ENE visible
02 Apr 4.4 05:05:46 10° N 05:08:07 31° NNE 05:08:07 31° NNE visible
03 Apr 5.2 04:53:06 10° N 04:54:26 19° NNE 04:54:26 19° NNE visible
04 Apr 5.7 04:40:27 10° NNE 04:40:59 13° NNE 04:40:59 13° NNE visible
